| time (UTC) | temp C | wind direction | speed KPH | gust KPH | rain 1hr cm | rain 24hr cm | rain mn cm | humidity % | barometer mb |
| 20260502151541 | 18 | 146 | 3.2 | 9.7 | 0.00 | 0.00 | 0.00 | 68 | 1025.4 |
| 20260502123025 | 18 | 114 | 3.2 | 12.9 | 0.00 | 0.00 | 0.00 | 67 | 1026.8 |
| 20260502121524 | 19 | 110 | 4.8 | 12.9 | 0.00 | 0.00 | 0.00 | 63 | 1026.9 |
| 20260502114522 | 20 | 158 | 6.4 | 14.5 | 0.00 | 0.00 | 0.00 | 61 | 1026.8 |
| 20260502113020 | 20 | 113 | 0.0 | 6.4 | 0.00 | 0.00 | 0.00 | 59 | 1027.0 |
| 20260502111517 | 20 | 113 | 1.6 | 8.0 | 0.00 | 0.00 | 0.00 | 61 | 1027.0 |
| 20260502110015 | 19 | 29 | 1.6 | 6.4 | 0.00 | 0.00 | 0.00 | 65 | 1027.1 |
| 20260502104511 | 18 | 128 | 1.6 | 6.4 | 0.00 | 0.00 | 0.00 | 67 | 1027.4 |
| 20260502103010 | 18 | 152 | 0.0 | 3.2 | 0.00 | 0.00 | 0.00 | 66 | 1027.8 |
| 20260502101509 | 18 | 153 | 0.0 | 4.8 | 0.00 | 0.00 | 0.00 | 69 | 1027.8 |
| 20260502070054 | 16 | 151 | 0.0 | 3.2 | 0.00 | 0.00 | 0.00 | 81 | 1028.1 |
| 20260502064548 | 16 | 150 | 0.0 | 0.0 | 0.00 | 0.00 | 0.00 | 82 | 1028.2 |
| 20260502063046 | 15 | 150 | 0.0 | 1.6 | 0.00 | 0.00 | 0.00 | 83 | 1028.0 |
| 20260502061545 | 15 | 150 | 0.0 | 0.0 | 0.00 | 0.00 | 0.00 | 84 | 1027.9 |
| 20260502060046 | 15 | 150 | 0.0 | 3.2 | 0.00 | 0.00 | 0.00 | 83 | 1028.0 |
| 20260502054542 | 15 | 150 | 0.0 | 0.0 | 0.00 | 0.00 | 0.00 | 84 | 1027.8 |
| 20260502053044 | 15 | 151 | 0.0 | 1.6 | 0.00 | 0.00 | 0.00 | 85 | 1027.8 |
| 20260502051542 | 15 | 150 | 0.0 | 0.0 | 0.00 | 0.00 | 0.00 | 86 | 1027.7 |
| 20260502050046 | 15 | 150 | 0.0 | 0.0 | 0.00 | 0.00 | 0.00 | 86 | 1027.7 |
| 20260502044549 | 15 | 150 | 0.0 | 0.0 | 0.00 | 0.00 | 0.00 | 86 | 1027.7 |
| 20260502043047 | 15 | 150 | 0.0 | 0.0 | 0.00 | 0.00 | 0.00 | 86 | 1027.7 |
| 20260502041546 | 15 | 150 | 0.0 | 1.6 | 0.00 | 0.00 | 0.00 | 86 | 1027.6 |
| 20260502040039 | 15 | 150 | 0.0 | 1.6 | 0.00 | 0.00 | 0.00 | 85 | 1027.6 |
| 20260502034540 | 15 | 150 | 0.0 | 1.6 | 0.00 | 0.00 | 0.00 | 84 | 1027.6 |
| 20260502033040 | 15 | 149 | 0.0 | 3.2 | 0.00 | 0.00 | 0.00 | 84 | 1027.5 |
| 20260502031537 | 15 | 149 | 0.0 | 4.8 | 0.00 | 0.00 | 0.00 | 84 | 1027.6 |
| 20260502030038 | 15 | 116 | 0.0 | 3.2 | 0.00 | 0.00 | 0.00 | 84 | 1027.6 |
| 20260502024539 | 16 | 115 | 0.0 | 4.8 | 0.00 | 0.00 | 0.00 | 84 | 1027.8 |
| 20260502023033 | 16 | 134 | 0.0 | 3.2 | 0.00 | 0.00 | 0.00 | 84 | 1027.8 |
| 20260502021532 | 16 | 134 | 0.0 | 3.2 | 0.00 | 0.00 | 0.00 | 85 | 1027.9 |
| 20260502020030 | 15 | 19 | 0.0 | 1.6 | 0.00 | 0.00 | 0.00 | 84 | 1027.8 |
| 20260502014547 | 15 | 19 | 0.0 | 3.2 | 0.00 | 0.00 | 0.00 | 84 | 1027.9 |
| 20260502013030 | 15 | 19 | 0.0 | 0.0 | 0.00 | 0.00 | 0.00 | 85 | 1027.9 |
| 20260502011527 | 15 | 19 | 0.0 | 3.2 | 0.00 | 0.00 | 0.00 | 85 | 1028.1 |
| 20260502010025 | 15 | 20 | 0.0 | 0.0 | 0.00 | 0.00 | 0.00 | 84 | 1028.3 |
| 20260502004523 | 15 | 20 | 0.0 | 3.2 | 0.00 | 0.00 | 0.00 | 80 | 1028.4 |
| 20260502003021 | 15 | 20 | 0.0 | 3.2 | 0.00 | 0.00 | 0.00 | 80 | 1028.6 |
| 20260502001521 | 15 | 20 | 0.0 | 3.2 | 0.00 | 0.00 | 0.00 | 80 | 1028.8 |
| 20260502000038 | 15 | 20 | 0.0 | 1.6 | 0.00 | 0.00 | 0.00 | 80 | 1028.9 |
| 20260501234519 | 15 | 20 | 0.0 | 0.0 | 0.00 | 0.00 | 0.00 | 80 | 1029.0 |
| 20260501233019 | 15 | 20 | 0.0 | 4.8 | 0.00 | 0.00 | 0.00 | 80 | 1029.1 |
| 20260501231523 | 15 | 17 | 0.0 | 3.2 | 0.00 | 0.00 | 0.00 | 79 | 1029.1 |
| 20260501230020 | 15 | 347 | 0.0 | 8.0 | 0.00 | 0.00 | 0.00 | 80 | 1029.1 |
| 20260501224514 | 15 | 126 | 0.0 | 1.6 | 0.00 | 0.00 | 0.00 | 83 | 1029.1 |
| 20260501223013 | 15 | 125 | 0.0 | 1.6 | 0.00 | 0.00 | 0.00 | 84 | 1029.0 |
| 20260501221519 | 15 | 126 | 0.0 | 1.6 | 0.00 | 0.00 | 0.00 | 85 | 1028.9 |
| 20260501220014 | 15 | 126 | 0.0 | 3.2 | 0.00 | 0.00 | 0.00 | 86 | 1028.9 |
| 20260501214512 | 15 | 126 | 0.0 | 0.0 | 0.00 | 0.00 | 0.00 | 86 | 1028.9 |
| 20260501213008 | 15 | 125 | 0.0 | 0.0 | 0.00 | 0.00 | 0.00 | 86 | 1029.1 |
| 20260501211508 | 15 | 125 | 0.0 | 0.0 | 0.00 | 0.00 | 0.00 | 86 | 1029.0 |
| 20260501210008 | 15 | 126 | 0.0 | 1.6 | 0.00 | 0.00 | 0.00 | 86 | 1029.0 |
| 20260501204506 | 15 | 125 | 0.0 | 0.0 | 0.00 | 0.00 | 0.00 | 87 | 1029.0 |
| 20260501203007 | 15 | 126 | 0.0 | 1.6 | 0.00 | 0.00 | 0.00 | 87 | 1029.0 |
| 20260501201504 | 15 | 110 | 0.0 | 1.6 | 0.00 | 0.00 | 0.00 | 87 | 1028.8 |
| 20260501200003 | 15 | 110 | 0.0 | 6.4 | 0.00 | 0.00 | 0.00 | 88 | 1028.7 |
| 20260501194601 | 15 | 155 | 0.0 | 6.4 | 0.00 | 0.00 | 0.00 | 89 | 1028.6 |
| 20260501193102 | 15 | 146 | 3.2 | 9.7 | 0.00 | 0.00 | 0.00 | 89 | 1028.4 |
| 20260501191556 | 16 | 135 | 3.2 | 11.3 | 0.00 | 0.00 | 0.00 | 87 | 1028.2 |
| 20260501190056 | 16 | 203 | 1.6 | 6.4 | 0.00 | 0.00 | 0.00 | 86 | 1028.0 |
| 20260501184556 | 16 | 138 | 1.6 | 16.1 | 0.00 | 0.00 | 0.00 | 85 | 1027.8 |
| 20260501183056 | 16 | 104 | 3.2 | 9.7 | 0.00 | 0.00 | 0.00 | 84 | 1027.6 |
| 20260501181550 | 16 | 119 | 8.0 | 12.9 | 0.00 | 0.00 | 0.00 | 82 | 1027.4 |
| 20260501180049 | 17 | 131 | 3.2 | 12.9 | 0.00 | 0.00 | 0.00 | 81 | 1027.1 |
| 20260501174548 | 17 | 86 | 1.6 | 12.9 | 0.00 | 0.00 | 0.00 | 79 | 1026.9 |
| 20260501173045 | 17 | 112 | 1.6 | 12.9 | 0.00 | 0.00 | 0.00 | 78 | 1026.9 |
| 20260501171548 | 17 | 134 | 1.6 | 12.9 | 0.00 | 0.00 | 0.00 | 76 | 1026.8 |
| 20260501170052 | 17 | 133 | 3.2 | 14.5 | 0.00 | 0.00 | 0.00 | 74 | 1026.8 |
| 20260501164545 | 18 | 121 | 8.0 | 16.1 | 0.00 | 0.00 | 0.00 | 72 | 1026.7 |
| 20260501163044 | 18 | 148 | 3.2 | 14.5 | 0.00 | 0.00 | 0.00 | 69 | 1026.7 |
| 20260501161544 | 18 | 109 | 6.4 | 12.9 | 0.00 | 0.00 | 0.00 | 67 | 1026.7 |